Regional Weather Roundup
Issued by NWS

Home | Current Version | Previous Version | Graphics & Text | Print | Product List | Glossary On
Versions: 1 2 3 4 5 6 7 8 9 10 11 12 13 14 15 16 17 18 19 20 21 22 23 24 25 26 27 28
000
ASUS45 KPSR 280110
RWRAZ

ARIZONA HOURLY REGIONAL WEATHER ROUNDUP
NATIONAL WEATHER SERVICE PHOENIX AZ
600 PM MST THU APR 27 2017

NOTE: FAIR INDICATES FEW OR NO CLOUDS BELOW 12,000 FEET WITH NO
SIGNIFICANT WEATHER AND/OR OBSTRUCTIONS TO VISIBILITY.

AZZ001>003-036-280200-
NORTHWEST ARIZONA

CITY           SKY/WX    TMP DP  RH WIND       PRES   REMARKS
BULLHEAD CITY  SUNNY     91  23   8 N7        29.54F
KINGMAN        MOSUNNY   77  26  15 W12       29.70F
$$

AZZ004>008-015-016-018-280200-
NORTH CENTRAL ARIZONA

CITY           SKY/WX    TMP DP  RH WIND       PRES   REMARKS
GRAND CANYON   PTSUNNY   58  23  26 W16G29    29.79R
WILLIAMS       PTSUNNY   59  19  21 W20G33    29.82S
PRESCOTT       MOSUNNY   70  28  21 W12       29.77R
FLAGSTAFF      PTSUNNY   57  17  21 W21G35    29.79R
PAYSON         CLOUDY    68  32  26 SW17G25   29.78S
PAGE           MOSUNNY   69  19  15 W13G28    29.63S
$$

AZZ009>014-017-280200-
NORTHEAST ARIZONA

CITY           SKY/WX    TMP DP  RH WIND       PRES   REMARKS
WINSLOW        MOSUNNY   72  17  12 W28G44    29.68R
SAINT JOHNS    CLOUDY    67  29  24 W29G40    29.67S
WINDOW ROCK    PTSUNNY   61  20  20 W17G28    29.70R
SHOW LOW       CLOUDY    59  28  31 SW18G29   29.79S
$$

AZZ540-542>544-546-548-280200-
GREATER PHOENIX AREA

CITY           SKY/WX    TMP DP  RH WIND       PRES   REMARKS
PHOENIX        PTSUNNY   88  39  17 SW15      29.55R
BUCKEYE        PTSUNNY   88  32  13 W15G21    29.57R
GLENDALE       PTSUNNY   90  36  14 S13       29.57R
LUKE AFB       CLOUDY    89  35  14 W16       29.54S
DEER VALLEY    CLOUDY    86  39  19 SW15      29.56S
SCOTTSDALE     CLOUDY    87  38  17 SW15G22   29.58F
MESA-FALCON    CLOUDY   N/A N/A N/A SW14      29.58S
MESA-GATEWAY   PTSUNNY   86  37  17 W14       29.60S
CHANDLER       SUNNY     88  37  16 SW12      29.58S
$$

AZZ539-553-280200-
SOUTHWEST MARICOPA COUNTY AND PINAL COUNTY

CITY           SKY/WX    TMP DP  RH WIND       PRES   REMARKS
CASA GRANDE    CLOUDY    87  38  17 W20       29.60R
GILA BEND      PTSUNNY   90  32  13 SW13      29.56S
$$

AZZ503-504-507>509-280200-
SOUTHEAST ARIZONA

CITY           SKY/WX    TMP DP  RH WIND       PRES   REMARKS
TUCSON         PTSUNNY   86  32  14 W14G23    29.67F
DAVIS-MONTHAN  PTSUNNY   85  34  16 W15G22    29.66F
RYAN FIELD     SUNNY     86  32  14 W16       29.66F
NOGALES        MOSUNNY   79  33  19 SW14G24   29.77R
SIERRA VISTA   PTSUNNY   78  29  17 SW21      29.80R
DOUGLAS        SUNNY     80  37  21 W25       29.75R
SAFFORD        CLOUDY    81  34  18 NW23G31   29.60S
$$

AZZ532-280200-
SOUTHWEST ARIZONA

CITY           SKY/WX    TMP DP  RH WIND       PRES   REMARKS
YUMA           CLOUDY    90  40  17 S8        29.56S
$$

CAZ041-043-047-048-061-525>527-560>570-280200-
SOUTHERN CALIFORNIA

CITY           SKY/WX    TMP DP  RH WIND       PRES   REMARKS
DOWNTOWN L.A.  MOSUNNY   84  35  17 NW9G21    29.71S
L.A. AIRPORT   MOSUNNY   67  53  61 W14       29.74S
SAN DIEGO      CLOUDY    66  58  75 W3        29.79S
BURBANK        MOSUNNY   79  33  19 NW15G29   29.74F
ONTARIO        PTSUNNY   75  48  38 SW9       29.73S
RIVERSIDE      MOSUNNY   75  49  39 W12       29.73S
PALM SPRINGS   SUNNY     88  46  23 NW24G38   29.60R
EL CENTRO NAS  CLOUDY    91  38  15 E3        29.56F
IMPERIAL       CLOUDY    92  38  15 N6        29.54F
BLYTHE         CLOUDY    93  32  11 W13       29.56S
NEEDLES        SUNNY     91  26   9 CALM      29.56S
$$

NVZ020-UTZ003-280200-
SOUTHERN NEVADA-UTAH

CITY           SKY/WX    TMP DP  RH WIND       PRES   REMARKS
LAS VEGAS      PTSUNNY   82  16   8 N18       29.62R
SALT LAKE CITY PTSUNNY   49  23  36 NW15      29.83R
$$

NMZ009-TXZ055-280200-
NEW MEXICO-WEST TEXAS

CITY           SKY/WX    TMP DP  RH WIND       PRES   REMARKS
ALBUQUERQUE    CLOUDY    64  34  32 N20       29.60R
EL PASO        MOCLDY    86  28  12 W28G41    29.57S
$$


........................KEY........................
SKY/WX - SKY CONDITION/WEATHER
TMP    - TEMPERATURE IN FAHRENHEIT
DP     - DEW POINT IN FAHRENHEIT
RH     - RELATIVE HUMIDITY IN PERCENT
WIND   - DIRECTION AND SPEED IN MILES PER HOUR (MPH)
VRB    - VARIABLE WIND DIRECTION
PRES   - MEAN SEA LEVEL PRESSURE IN INCHES OF MERCURY
         F - FALLING PRESSURE   R - RISING PRESSURE
         S - STEADY PRESSURE
VSB    - VISIBILITY IN MILES
HX     - HEAT INDEX IN FAHRENHEIT
WCI    - WIND CHILL INDEX IN FAHRENHEIT
TC     - TEMPERATURE IN CELSIUS WHICH IS ALSO KNOWN AS
         TEMPERATURE IN CENTIGRADE
AFB    - AIR FORCE BASE
         LUKE AFB IS LUKE AIR FORCE BASE
         DAVIS-MONTHAN IS DAVIS-MONTHAN AIR FORCE BASE
NAS    - NAVAL AIR STATION
         EL CENTRO NAS IS EL CENTRO NAVAL AIR STATION
N/A    - NOT AVAILABLE





USA.gov is the U.S. government's official web portal to all federal, state and local government web resources and services.